Meath Environmental Platform

Observations for Trim Market St

Time AQI Temp °C Hum % Pres Pa CO μg/m³ H₂S μg/m³ NO μg/m³ NO₂ μg/m³ O₃ μg/m³ SO₂ μg/m³ PM1 μg/m³ PM2.5 μg/m³ PM10 μg/m³
Wednesday 15 July 2026
19:38 1 25.6 48 59,723 0 0 0 6.39 35.12 0 8.55 11.84 15.85
19:36 1 25.7 48 59,821 0 0 0 6.57 34.04 0 9.26 12.37 16.62
19:30 1 25.8 48 60,104 0 0 0 7.89 37.21 0 7.13 9.81 15.13
19:28 1 25.8 47 60,554 0 0 0 6.71 35.09 0 6.41 10.34 14.38
19:27 1 25.8 47 60,819 0 0 0 9.13 38.22 0 8.55 10.86 15.14
19:25 1 25.8 47 61,390 0 0 0 6.67 36.57 0 9.26 11.93 16.7
19:18 1 25.9 46 62,223 0 0 0 6.59 32.18 0 6.41 9.36 12.13
19:17 1 25.9 47 62,333 0 0 0 4.58 35.69 0 7.84 9.87 12.89
19:16 1 26 46 62,251 0 0 0 4.16 31.13 0 6.41 9.88 12.89
19:15 1 26 46 62,180 0 0 0 5.76 35.63 0 6.41 8.84 12.13
19:14 1 26 46 62,162 0 0 0 5.86 35.61 0 7.13 9.88 12.89
19:12 1 26 46 62,347 0 0 0 4.79 35.6 0 5.7 9.37 12.13
19:11 1 26 46 62,389 0 0 0 5.39 33.62 0 6.41 10.93 17.51
19:10 1 26.1 46 62,407 0 0 0 6.06 31.33 0 7.13 10.93 15.2
19:09 1 26.1 46 62,427 0 0 0 4.76 32.95 0 6.41 9.37 12.9
19:08 1 26.1 46 62,442 0 0 0 6.27 37.93 0 6.41 10.41 14.44
19:07 1 26.1 46 62,513 0 0 0 4.58 34.32 0 7.13 10.42 13.68
19:06 1 26.2 46 62,574 0 0 0 3.75 31.77 0 7.84 10.94 15.21
19:05 1 26.2 46 62,531 0 0 0 4.84 35.75 0 7.84 10.41 13.67
19:03 1 26.2 46 62,440 0 0 0 4.95 31.03 0 6.41 8.86 11.37